Date String (YYYY-MM-DD hh:mm:ss) UTC,Instrument flags,Ambient pressure (hPa),Sample flow (lpm),Bypass flow (lpm),Sample temperature (°C),Ambient temperature (°C),ASC tube jacket temperature (°C),LED temperature (°C),Box temperature (°C),Sample RH (%),Span deviation,Mass concentration (μg/m³),Mass concentration (μg/m³),Mass concentration (μg/m³)
DateTimeUTC,F1_M11,P_M11,Q1_M11,Q2_M11,T1_M11,T2_M11,T3_M11,T4_M11,T5_M11,U1_M11,ZSPAN_M11,X0_M11,X2_M11,X1_M11
2021-10-04 03:00:00,,0831.0,4.99,0.00,30.0,29.1,00.0,38.9,31.7,12.0,0002.1,0008.30,0004.01,0003.72
2021-10-04 03:01:00,,0831.0,5.00,0.00,30.0,29.1,00.0,38.9,31.7,11.9,0001.7,0007.80,0004.01,0003.71
2021-10-04 03:02:00,,0831.1,5.00,0.00,30.0,29.1,00.0,38.9,31.8,11.9,0001.8,0007.03,0004.00,0003.70
2021-10-04 03:03:00,,0831.0,5.01,0.00,30.0,29.2,00.0,39.0,31.8,11.9,0001.5,0006.95,0004.01,0003.69
2021-10-04 03:04:00,,0831.0,5.00,0.00,30.0,29.2,00.0,39.0,31.9,11.8,0000.5,0007.20,0004.04,0003.68
2021-10-04 03:05:00,,0831.1,4.98,0.00,30.0,29.2,00.0,39.0,31.9,11.9,-000.3,0007.16,0004.04,0003.68
2021-10-04 03:06:00,,0831.0,5.01,0.00,30.0,28.0,00.0,39.0,31.6,11.8,0000.3,0006.80,0004.03,0003.69
2021-10-04 03:07:00,,0831.0,5.00,0.00,29.9,26.2,00.0,39.0,31.1,11.9,0000.6,0007.08,0004.04,0003.69
2021-10-04 03:08:00,,0831.0,5.01,0.00,29.7,26.1,00.0,38.9,31.0,11.9,0000.6,0007.38,0004.07,0003.70
2021-10-04 03:09:00,,0831.0,5.00,0.00,29.6,26.5,00.0,38.9,31.1,12.0,-000.0,0008.12,0004.10,0003.70
2021-10-04 03:10:00,,0831.0,5.00,0.00,29.6,26.9,00.0,38.9,31.1,12.0,-000.2,0008.11,0004.09,0003.69
2021-10-04 03:11:00,,0831.1,4.99,0.00,29.6,27.3,00.0,38.8,31.2,12.0,-000.1,0008.04,0004.06,0003.69
2021-10-04 03:12:00,,0831.1,5.00,0.00,29.6,27.6,00.0,38.8,31.2,12.0,0000.1,0008.66,0004.04,0003.69
2021-10-04 03:13:00,,0831.1,5.01,0.00,29.6,27.8,00.0,38.8,31.3,12.0,0000.4,0008.81,0004.06,0003.71
2021-10-04 03:14:00,,0831.1,4.99,0.00,29.6,28.0,00.0,38.8,31.3,12.0,0000.5,0009.04,0004.06,0003.70
2021-10-04 03:15:00,,0831.1,5.00,0.00,29.6,28.2,00.0,38.8,31.4,12.1,0001.2,0009.00,0004.06,0003.71
2021-10-04 03:16:00,,0831.2,5.01,0.00,29.6,28.3,00.0,38.8,31.4,12.1,0001.5,0009.12,0004.09,0003.70
2021-10-04 03:17:00,,0831.1,4.99,0.00,29.6,28.4,00.0,38.8,31.4,12.1,0001.7,0009.34,0004.10,0003.70
2021-10-04 03:18:00,,0831.2,5.00,0.00,29.7,28.5,00.0,38.8,31.4,12.1,0001.4,0009.26,0004.10,0003.70
2021-10-04 03:19:00,,0831.2,5.01,0.00,29.7,28.6,00.0,38.7,31.5,12.1,0001.4,0009.10,0004.06,0003.69
2021-10-04 03:20:00,,0831.2,4.99,0.00,29.7,28.6,00.0,38.8,31.5,12.1,0001.7,0008.35,0004.04,0003.69
2021-10-04 03:21:00,,0831.2,5.01,0.00,29.7,28.7,00.0,38.8,31.5,12.1,0002.1,0008.35,0004.06,0003.70
2021-10-04 03:22:00,,0831.2,5.00,0.00,29.8,28.7,00.0,38.8,31.6,12.3,0001.7,0008.40,0004.07,0003.70
2021-10-04 03:23:00,,0831.2,5.00,0.00,29.8,28.8,00.0,38.8,31.6,12.2,0002.2,0008.03,0004.10,0003.70
2021-10-04 03:24:00,,0831.2,5.01,0.00,29.8,28.8,00.0,38.8,31.6,12.1,0002.2,0007.81,0004.10,0003.71
2021-10-04 03:25:00,,0831.2,5.00,0.00,29.8,28.8,00.0,38.8,31.7,12.1,0002.4,0007.52,0004.09,0003.71
2021-10-04 03:26:00,,0831.2,5.00,0.00,29.8,28.9,00.0,38.8,31.7,12.0,0002.6,0007.55,0004.08,0003.71
2021-10-04 03:27:00,,0831.2,5.00,0.00,29.9,28.9,00.0,38.9,31.7,12.1,0002.6,0007.47,0004.07,0003.71
2021-10-04 03:28:00,,0831.1,5.01,0.00,29.9,29.0,00.0,38.9,31.7,12.0,0002.4,0007.32,0004.06,0003.72
2021-10-04 03:29:00,,0831.2,5.00,0.00,29.9,29.0,00.0,38.9,31.8,12.0,0002.4,0007.23,0004.05,0003.72
2021-10-04 03:30:00,,0831.2,4.99,0.00,29.9,29.0,00.0,38.9,31.7,12.0,0002.2,0007.46,0004.08,0003.72
2021-10-04 03:31:00,,0831.2,5.00,0.00,29.9,29.0,00.0,38.9,31.7,11.9,0002.1,0007.46,0004.07,0003.72
2021-10-04 03:32:00,,0831.2,5.01,0.00,30.0,29.1,00.0,38.9,31.7,11.9,0002.0,0007.38,0004.05,0003.72
2021-10-04 03:33:00,,0831.1,4.98,0.00,30.0,29.1,00.0,39.0,31.8,11.9,0001.9,0007.27,0004.02,0003.71
2021-10-04 03:34:00,,0831.2,5.01,0.00,30.0,29.1,00.0,39.0,31.8,11.9,0001.8,0006.97,0004.00,0003.70
2021-10-04 03:35:00,,0831.2,5.01,0.00,30.0,29.1,00.0,39.0,31.8,11.9,0002.0,0007.06,0003.99,0003.69
2021-10-04 03:36:00,,0831.2,4.99,0.00,30.0,29.2,00.0,39.0,31.9,11.9,0001.5,0007.44,0003.99,0003.68
2021-10-04 03:37:00,,0831.2,5.01,0.00,30.0,29.2,00.0,39.0,31.9,11.9,0000.0,0007.49,0003.97,0003.67
2021-10-04 03:38:00,,0831.1,5.00,0.00,30.1,29.2,00.0,39.1,31.9,11.8,0000.0,0007.39,0003.94,0003.67
2021-10-04 03:39:00,,0831.2,5.00,0.00,30.1,29.2,00.0,39.1,31.9,11.8,0000.2,0007.12,0003.95,0003.67
2021-10-04 03:40:00,,0831.2,5.00,0.00,30.1,29.2,00.0,39.1,31.9,11.7,0001.3,0007.16,0003.96,0003.67
2021-10-04 03:41:00,,0831.2,5.01,0.00,30.1,29.2,00.0,39.1,31.9,11.8,0001.9,0006.94,0003.94,0003.66
2021-10-04 03:42:00,,0831.2,5.00,0.00,30.1,29.1,00.0,39.1,31.9,11.8,0000.1,0006.86,0003.94,0003.65
2021-10-04 03:43:00,,0831.2,5.00,0.00,30.1,29.1,00.0,39.1,31.9,11.8,0000.0,0007.09,0003.95,0003.66
2021-10-04 03:44:00,,0831.2,5.01,0.00,30.1,29.1,00.0,39.1,31.9,11.8,0000.0,0007.15,0003.96,0003.67
2021-10-04 03:45:00,,0831.2,5.01,0.00,30.1,27.8,00.0,39.1,31.6,11.9,0000.0,0007.17,0003.97,0003.67
2021-10-04 03:46:00,,0831.1,4.99,0.00,29.9,26.2,00.0,39.1,31.2,12.0,0000.0,0007.15,0003.98,0003.67
2021-10-04 03:47:00,,0831.3,5.01,0.00,29.8,26.1,00.0,39.1,31.1,12.0,0000.0,0006.79,0003.98,0003.66
2021-10-04 03:48:00,,0831.2,5.00,0.00,29.7,26.5,00.0,39.0,31.1,12.0,0000.0,0006.52,0003.98,0003.66
2021-10-04 03:49:00,,0831.2,4.99,0.00,29.7,26.9,00.0,38.9,31.2,12.0,0000.6,0006.99,0004.01,0003.66
2021-10-04 03:50:00,,0831.2,5.01,0.00,29.6,27.3,00.0,38.9,31.2,12.0,0000.7,0007.07,0004.03,0003.66
2021-10-04 03:51:00,,0831.3,4.99,0.00,29.6,27.6,00.0,38.9,31.3,12.0,0000.0,0007.19,0004.03,0003.65
2021-10-04 03:52:00,,0831.2,5.01,0.00,29.6,27.8,00.0,38.9,31.3,11.9,0000.1,0007.38,0004.03,0003.64
2021-10-04 03:53:00,,0831.2,5.00,0.00,29.6,28.0,00.0,38.8,31.4,11.8,-000.0,0007.40,0004.03,0003.64
2021-10-04 03:54:00,,0831.2,5.01,0.00,29.6,28.2,00.0,38.8,31.4,11.8,-000.2,0007.27,0004.02,0003.63
2021-10-04 03:55:00,,0831.2,5.00,0.00,29.7,28.3,00.0,38.8,31.4,11.8,0000.0,0007.27,0004.03,0003.63
2021-10-04 03:56:00,,0831.2,4.99,0.00,29.7,28.4,00.0,38.8,31.4,11.9,0000.0,0007.29,0004.04,0003.65
2021-10-04 03:57:00,,0831.2,5.00,0.00,29.7,28.5,00.0,38.8,31.4,11.9,0000.4,0007.51,0004.03,0003.64
2021-10-04 03:58:00,,0831.2,5.01,0.00,29.7,28.6,00.0,38.8,31.4,11.7,0000.4,0007.53,0004.00,0003.64
2021-10-04 03:59:00,,0831.2,5.00,0.00,29.7,28.6,00.0,38.8,31.5,11.8,0000.0,0007.53,0004.03,0003.65
